Gadsden, AL

7:16 PM CST on December 06, 2019 (GMT -0600)
Gadsden Municipal

Weather History for KGAD - June, 2019

Change the Weather History Date:

Friday, June 7, 2019

  Actual Average Record
Temperature  
Mean Temperature 76 °F -  
Max Temperature 84 °F 81 °F 99 °F (1933)
Min Temperature 71 °F 61 °F 48 °F (1998)
Cooling Degree Days 12    
Growing Degree Days 26 (Base 50)    
Moisture  
Dew Point 75 °F    
Average Humidity 89    
Maximum Humidity 100    
Minimum Humidity 71    
Precipitation  
Precipitation 0.52 in - - ()
Sea Level Pressure  
Sea Level Pressure 29.74 in    
Wind  
Wind Speed 5 mph ()    
Max Wind Speed 12 mph    
Max Gust Speed -    
Visibility 9.4 miles    
Events Rain , Thunderstorm    
Averages and records for this station are not official NWS values.
T = Trace of Precipitation, MM = Missing Value Source: Averaged Metar Reports

Daily Weather History Graph

Daily Weather History Graph

Search for Another Location

Airport or City:

Astronomy

Jun. 07, 2019 Rise Set
Actual Time 5:33 AM CDT 7:53 PM CDT
Civil Twilight 5:04 AM CDT 8:22 PM CDT
Nautical Twilight 4:28 AM CDT 8:58 PM CDT
Astronomical Twilight 3:49 AM CDT 9:37 PM CDT
Moon 9:46 AM CDT No Moon Set
Length of Visible Light 15h 18m
Length of Day
14h 20m
Waxing Crescent, 22% of the Moon is Illuminated
Jun 7
Waxing Crescent
Jun 10
First Quarter
Jun 17
Full
Jun 25
Last Quarter
Jul 2
New

Hourly Weather History & Observations

Time (CDT) Temp. Heat Index Dew Point Humidity Pressure Visibility Wind Dir Wind Speed Gust Speed Precip Events Conditions
12:56 AM 71.1 °F - - N/A% 29.78 in 6.0 mi ENE 6.9 mph - 0.02 in Rain Light Rain
1:16 AM 71.6 °F - - N/A% 29.76 in 5.0 mi ENE 10.4 mph - 0.02 in Rain Rain
1:56 AM 71.1 °F - - N/A% 29.74 in 9.0 mi East 5.8 mph - 0.03 in   Overcast
2:03 AM 71.6 °F - - N/A% 29.74 in 10.0 mi ENE 3.5 mph - N/A   Overcast
2:42 AM 71.6 °F - - N/A% 29.74 in 1.8 mi Variable 3.5 mph - 0.16 in Rain Heavy Rain
2:49 AM 71.6 °F - - N/A% 29.74 in 3.0 mi Variable 4.6 mph - 0.24 in Rain Heavy Rain
2:56 AM 72.0 °F - - N/A% 29.74 in 4.0 mi SE 9.2 mph - 0.29 in Rain Rain
3:56 AM 71.1 °F - - N/A% 29.73 in 10.0 mi Calm Calm - 0.16 in Rain Light Rain
4:07 AM 71.6 °F - - N/A% 29.73 in 10.0 mi East 3.5 mph - 0.00 in Rain Light Rain
4:28 AM 71.6 °F - - N/A% 29.73 in 10.0 mi ENE 6.9 mph - 0.00 in Rain Light Rain
4:37 AM 71.6 °F - - N/A% 29.73 in 10.0 mi Variable 4.6 mph - 0.00 in   Overcast
4:56 AM 72.0 °F - - N/A% 29.73 in 10.0 mi Variable 5.8 mph - 0.00 in   Overcast
5:04 AM 71.6 °F - - N/A% 29.74 in 10.0 mi South 3.5 mph - N/A   Overcast
5:21 AM 71.6 °F - - N/A% 29.74 in 10.0 mi East 4.6 mph - N/A   Overcast
5:56 AM 72.0 °F - - N/A% 29.75 in 10.0 mi SSE 5.8 mph - N/A   Overcast
6:12 AM 71.6 °F - - N/A% 29.75 in 10.0 mi SE 4.6 mph - N/A   Overcast
6:25 AM 71.6 °F - - N/A% 29.75 in 10.0 mi SE 3.5 mph - 0.00 in Rain Light Rain
6:34 AM 71.6 °F - - N/A% 29.75 in 10.0 mi SE 3.5 mph - 0.01 in Rain Light Rain
6:56 AM 73.0 °F - - N/A% 29.75 in 10.0 mi Calm Calm - 0.01 in   Overcast
7:22 AM 73.4 °F - - N/A% 29.75 in 10.0 mi SW 6.9 mph - 0.00 in Rain , Thunderstorm Light Thunderstorms and Rain
7:44 AM 73.4 °F - - N/A% 29.76 in 10.0 mi South 4.6 mph - 0.00 in   Overcast
7:56 AM 73.9 °F - - N/A% 29.75 in 10.0 mi SSW 4.6 mph - 0.00 in   Mostly Cloudy
8:04 AM 75.2 °F - - N/A% 29.75 in 10.0 mi Variable 5.8 mph - 0.00 in Rain Light Rain
8:29 AM 77.0 °F - 75.2 °F 94% 29.75 in 10.0 mi Variable 4.6 mph - 0.00 in   Mostly Cloudy
8:56 AM 78.1 °F - 78.1 °F 100% 29.75 in 10.0 mi SW 9.2 mph - 0.00 in   Mostly Cloudy
9:45 AM 80.6 °F 87.1 °F 77.0 °F 89% 29.75 in 10.0 mi SW 9.2 mph - N/A   Overcast
9:56 AM 80.1 °F 86.4 °F 78.1 °F 94% 29.75 in 10.0 mi SW 6.9 mph - N/A   Overcast
10:26 AM 80.6 °F 88.1 °F 78.8 °F 94% 29.76 in 10.0 mi WSW 8.1 mph - N/A   Mostly Cloudy
10:34 AM 82.4 °F 92.4 °F 78.8 °F 89% 29.75 in 10.0 mi WSW 8.1 mph - N/A   Mostly Cloudy
10:56 AM 82.0 °F 89.4 °F 75.9 °F 82% 29.75 in 10.0 mi SW 6.9 mph - N/A   Mostly Cloudy
11:43 AM 82.4 °F 90.9 °F 77.0 °F 84% 29.75 in 10.0 mi SW 11.5 mph - 0.00 in Rain Light Rain
11:56 AM 82.9 °F 90.8 °F 75.9 °F 79% 29.74 in 10.0 mi SSW 8.1 mph - 0.00 in   Partly Cloudy
12:04 PM 82.4 °F 89.5 °F 75.2 °F 79% 29.74 in 9.0 mi SSW 6.9 mph - N/A Thunderstorm Partly Cloudy
12:19 PM 80.6 °F 88.1 °F 78.8 °F 94% 29.74 in 10.0 mi SW 4.6 mph - 0.00 in Rain Light Rain
12:56 PM 82.9 °F 90.8 °F 75.9 °F 79% 29.72 in 10.0 mi SSW 6.9 mph - 0.00 in   Clear
1:25 PM 80.6 °F 86.2 °F 75.2 °F 84% 29.72 in 10.0 mi SW 6.9 mph - N/A Thunderstorm Partly Cloudy
1:56 PM 79.0 °F - 73.0 °F 82% 29.72 in 10.0 mi SW 5.8 mph - 0.00 in Thunderstorm Clear
2:15 PM 78.8 °F - 73.4 °F 83% 29.73 in 10.0 mi SSW 4.6 mph - N/A   Clear
2:56 PM 78.1 °F - 73.9 °F 87% 29.73 in 10.0 mi South 8.1 mph - N/A   Clear
3:56 PM 79.0 °F - 73.0 °F 82% 29.72 in 10.0 mi South 8.1 mph - N/A   Clear
4:56 PM 82.0 °F 86.7 °F 72.0 °F 71% 29.70 in 10.0 mi SSW 9.2 mph - N/A   Clear
5:56 PM 81.0 °F 85.2 °F 72.0 °F 74% 29.70 in 10.0 mi South 10.4 mph - N/A   Clear
6:56 PM 79.0 °F - 73.0 °F 82% 29.70 in 10.0 mi South 4.6 mph - N/A   Clear
7:56 PM 75.0 °F - 75.0 °F 100% 29.73 in 10.0 mi Calm Calm - N/A   Clear
8:56 PM 75.0 °F - 75.0 °F 100% 29.73 in 10.0 mi Calm Calm - N/A   Clear
9:56 PM 75.0 °F - 75.0 °F 100% 29.73 in 10.0 mi Calm Calm - N/A   Clear
10:51 PM 73.4 °F - 73.4 °F 100% 29.76 in 10.0 mi South 3.5 mph - 0.00 in Rain Light Rain
10:56 PM 73.9 °F - 73.9 °F 100% 29.75 in 10.0 mi Calm Calm - 0.00 in Rain Light Rain
11:18 PM 73.4 °F - 73.4 °F 100% 29.76 in 10.0 mi South 4.6 mph - 0.00 in   Mostly Cloudy
11:27 PM 73.4 °F - 73.4 °F 100% 29.76 in 10.0 mi South 3.5 mph - 0.01 in   Scattered Clouds
11:56 PM 73.9 °F - 73.9 °F 100% 29.75 in 10.0 mi Calm Calm - 0.01 in   Clear